FW8264 Weather Reports


time (UTC)temp
C
wind
direction
speed
KPH
gust
KPH
rain 1hr
cm
rain 24hr
cm
rain mn
cm
humidity
%
barometer
mb
20260906140058 20 0 0.0 1.6 0.00 0.03 0.03 88 1020.0
20260906134558 20 0 0.0 1.6 0.00 0.03 0.03 89 1020.0
20260906133105 20 0 0.0 1.6 0.00 0.03 0.03 88 1020.0
20260906131602 20 153 0.0 1.6 0.00 0.03 0.03 90 1019.9
20260906130059 19 113 0.0 3.2 0.00 0.03 0.03 92 1019.6
20260906124553 18 96 0.0 3.2 0.00 0.03 0.03 95 1019.5
20260906123104 18 0 0.0 1.6 0.00 0.03 0.03 96 1019.0
20260906121556 17 63 0.0 4.8 0.00 0.03 0.03 96 1019.2
20260906120140 17 15 0.0 3.2 0.00 0.03 0.03 96 1019.0
20260906114607 17 44 0.0 1.6 0.00 0.03 0.03 96 1018.7
20260906113058 17 0 0.0 3.2 0.00 0.03 0.03 96 1018.5
20260906111603 17 0 0.0 3.2 0.03 0.03 0.03 96 1018.2
20260906110056 17 0 0.0 3.2 0.03 0.03 0.03 96 1018.2
20260906104600 17 0 0.0 3.2 0.03 0.03 0.03 96 1018.2
20260906103104 17 7 1.6 4.8 0.03 0.03 0.03 96 1018.2
20260906101606 17 7 0.0 1.6 0.00 0.00 0.00 96 1018.2
20260906100104 17 0 0.0 1.6 0.00 0.00 0.00 95 1018.1
20260906094603 17 337 0.0 3.2 0.00 0.00 0.00 95 1017.8
20260906093100 17 335 0.0 3.2 0.00 0.00 0.00 95 1018.0
20260906091601 17 0 0.0 3.2 0.00 0.00 0.00 95 1017.8
20260906090105 17 0 0.0 1.6 0.00 0.00 0.00 95 1017.8
20260906084601 17 2 0.0 6.4 0.00 0.00 0.00 95 1017.8
20260906083103 17 0 0.0 1.6 0.00 0.00 0.00 95 1017.8
20260906081601 17 333 0.0 3.2 0.00 0.00 0.00 95 1017.8
20260906074602 17 0 0.0 1.6 0.00 0.00 0.00 95 1017.8
20260906073101 17 0 0.0 0.0 0.00 0.00 0.00 96 1017.7
20260906071559 17 0 0.0 0.0 0.00 0.00 0.00 96 1017.6
20260906070058 17 0 0.0 0.0 0.00 0.00 0.00 96 1017.6
20260906064600 17 0 0.0 0.0 0.00 0.00 0.00 96 1017.6
20260906063101 17 68 0.0 0.0 0.00 0.00 0.00 96 1017.7
20260906061557 17 0 0.0 0.0 0.00 0.00 0.00 96 1017.7
20260906060109 17 0 0.0 0.0 0.00 0.00 0.00 96 1017.7
20260906054627 17 0 0.0 0.0 0.00 0.00 0.00 96 1017.5
20260906053059 17 0 0.0 1.6 0.00 0.00 0.00 95 1017.6
20260906051602 17 0 0.0 1.6 0.00 0.00 0.00 95 1017.5
20260906050108 17 0 0.0 1.6 0.00 0.00 0.00 95 1017.4
20260906044603 17 0 0.0 1.6 0.00 0.00 0.00 95 1017.4
20260906043101 17 0 0.0 3.2 0.00 0.00 0.00 95 1017.3
20260906041604 17 0 0.0 0.0 0.00 0.00 0.00 95 1017.2
20260906040109 17 0 0.0 0.0 0.00 0.00 0.00 94 1017.1
20260906034557 17 0 0.0 0.0 0.00 0.00 0.00 93 1017.2
20260906033101 17 0 0.0 1.6 0.00 0.00 0.00 94 1017.2
20260906031615 17 0 0.0 1.6 0.00 0.00 0.00 93 1017.2
20260906030059 17 0 0.0 1.6 0.00 0.00 0.00 93 1017.1
20260906024606 18 0 0.0 3.2 0.00 0.00 0.00 93 1017.1
20260906023101 18 117 0.0 1.6 0.00 0.00 0.00 93 1017.1
20260906021615 18 0 0.0 1.6 0.00 0.00 0.00 93 1016.8
20260906014556 18 0 0.0 0.0 0.00 0.00 0.00 92 1016.8
20260906013105 19 0 0.0 0.0 0.00 0.00 0.00 90 1016.7
20260906011604 20 0 0.0 1.6 0.00 0.00 0.00 90 1016.6
20260906010104 20 0 0.0 1.6 0.00 0.00 0.00 89 1016.8
20260906004606 20 0 0.0 1.6 0.00 0.00 0.00 89 1016.8
20260906003059 20 0 0.0 3.2 0.00 0.00 0.00 89 1016.7
20260906001605 20 0 0.0 3.2 0.00 0.00 0.00 89 1016.6
20260906000105 21 123 0.0 9.7 0.00 0.00 0.00 89 1016.8
20260905234605 21 0 0.0 6.4 0.00 0.00 0.00 89 1016.8
20260905233057 21 0 0.0 4.8 0.00 0.00 0.00 89 1016.8
20260905231603 21 0 0.0 4.8 0.00 0.00 0.00 88 1016.7
20260905230103 21 38 0.0 4.8 0.00 0.00 0.00 88 1016.6
20260905224557 21 88 1.6 6.4 0.00 0.00 0.00 88 1016.6
20260905223104 22 0 3.2 9.7 0.00 0.00 0.00 88 1016.5
20260905221603 21 140 1.6 8.0 0.00 0.00 0.00 88 1016.3
20260905220105 22 169 3.2 9.7 0.00 0.00 0.00 88 1016.1
20260905214601 22 57 1.6 6.4 0.00 0.00 0.00 88 1015.9
20260905213101 22 36 0.0 6.4 0.00 0.00 0.00 88 1016.1
20260905211612 22 0 3.2 8.0 0.00 0.00 0.00 88 1016.2
20260905210107 22 196 0.0 6.4 0.00 0.00 0.00 88 1016.2
20260905204600 22 0 0.0 4.8 0.00 0.00 0.00 88 1016.1
20260905203122 23 46 1.6 8.0 0.00 0.00 0.00 87 1016.1
20260905201606 23 91 1.6 8.0 0.00 0.00 0.00 86 1016.1
20260905200116 23 45 1.6 12.9 0.00 0.00 0.00 87 1016.0
20260905194605 23 0 3.2 9.7 0.00 0.00 0.00 86 1016.0
20260905193102 23 86 1.6 4.8 0.00 0.00 0.00 88 1016.0
20260905191554 22 11 1.6 6.4 0.00 0.00 0.00 89 1016.0
20260905190106 23 0 3.2 8.0 0.00 0.00 0.00 87 1016.0
20260905184611 24 220 1.6 8.0 0.00 0.00 0.00 85 1016.0
20260905183059 24 86 3.2 8.0 0.00 0.00 0.00 85 1016.1
20260905181605 24 55 1.6 9.7 0.00 0.00 0.00 86 1015.9
20260905180106 24 288 1.6 8.0 0.00 0.00 0.00 84 1016.0
20260905174601 24 212 1.6 6.4 0.00 0.00 0.00 84 1016.0
20260905173106 24 128 1.6 8.0 0.00 0.00 0.00 83 1016.0
20260905171601 23 305 1.6 3.2 0.00 0.00 0.00 84 1016.0
20260905170126 23 0 0.0 9.7 0.00 0.00 0.00 87 1016.1
20260905164557 23 52 3.2 9.7 0.00 0.00 0.00 86 1016.1
20260905163102 23 169 0.0 9.7 0.00 0.00 0.00 87 1016.1
20260905161559 23 255 0.0 6.4 0.00 0.00 0.00 86 1015.9
20260905160106 23 44 3.2 8.0 0.00 0.00 0.00 87 1016.0
20260905154611 23 0 1.6 8.0 0.00 0.05 0.00 87 1016.0
20260905153058 22 120 0.0 4.8 0.00 0.05 0.00 90 1015.8
20260905151622 22 198 0.0 8.0 0.00 0.05 0.00 91 1015.8
20260905150106 22 0 1.6 8.0 0.00 0.05 0.00 93 1015.7
20260905144603 21 0 0.0 4.8 0.00 1.07 0.00 95 1015.4
20260905143104 21 100 0.0 4.8 0.00 1.07 0.00 96 1015.3
20260905141603 21 117 1.6 9.7 0.00 1.07 0.00 97 1015.1